TimeEDT,TemperatureF,Dew PointF,Humidity,Sea Level PressureIn,VisibilityMPH,Wind Direction,Wind SpeedMPH,Gust SpeedMPH,PrecipitationIn,Events,Conditions,WindDirDegrees,DateUTC
12:15 AM,77.0,75.2,94,30.15,9.0,Calm,Calm,-,N/A,,Clear,0,2013-07-07 04:15:00
12:35 AM,77.0,75.2,94,30.15,9.0,SE,3.5,-,N/A,,Clear,130,2013-07-07 04:35:00
12:55 AM,77.0,75.2,94,30.16,9.0,Calm,Calm,-,N/A,,Clear,0,2013-07-07 04:55:00
1:15 AM,75.2,75.2,100,30.15,9.0,Calm,Calm,-,N/A,,Clear,0,2013-07-07 05:15:00
1:35 AM,75.2,75.2,100,30.15,7.0,Calm,Calm,-,N/A,,Clear,0,2013-07-07 05:35:00
1:55 AM,75.2,73.4,94,30.15,8.0,Calm,Calm,-,N/A,,Clear,0,2013-07-07 05:55:00
2:15 AM,73.4,73.4,100,30.14,7.0,Calm,Calm,-,N/A,,Clear,0,2013-07-07 06:15:00
2:35 AM,73.4,73.4,100,30.14,8.0,Calm,Calm,-,N/A,,Clear,0,2013-07-07 06:35:00
2:55 AM,73.4,73.4,100,30.13,7.0,Calm,Calm,-,N/A,,Clear,0,2013-07-07 06:55:00
3:15 AM,73.4,73.4,100,30.13,6.0,Calm,Calm,-,N/A,,Clear,0,2013-07-07 07:15:00
3:35 AM,73.4,73.4,100,30.12,6.0,Calm,Calm,-,N/A,,Clear,0,2013-07-07 07:35:00
3:55 AM,73.4,73.4,100,30.12,6.0,Calm,Calm,-,N/A,,Clear,0,2013-07-07 07:55:00
4:15 AM,73.4,73.4,100,30.12,5.0,Calm,Calm,-,N/A,,Clear,0,2013-07-07 08:15:00
4:35 AM,73.4,73.4,100,30.12,5.0,Calm,Calm,-,N/A,,Clear,0,2013-07-07 08:35:00
4:55 AM,71.6,71.6,100,30.12,4.0,Calm,Calm,-,N/A,,Clear,0,2013-07-07 08:55:00
5:15 AM,71.6,71.6,100,30.12,3.0,Calm,Calm,-,N/A,,Clear,0,2013-07-07 09:15:00
5:35 AM,71.6,71.6,100,30.12,4.0,Calm,Calm,-,N/A,,Clear,0,2013-07-07 09:35:00
5:55 AM,71.6,71.6,100,30.12,0.2,Calm,Calm,-,N/A,Fog,Fog,0,2013-07-07 09:55:00
6:15 AM,71.6,71.6,100,30.12,3.0,Calm,Calm,-,N/A,,Clear,0,2013-07-07 10:15:00
6:35 AM,69.8,69.8,100,30.13,2.0,Calm,Calm,-,N/A,,Clear,0,2013-07-07 10:35:00
6:50 AM,69.8,69.8,100,30.13,7.0,Calm,Calm,-,N/A,,Clear,0,2013-07-07 10:50:00
7:50 AM,73.4,73.4,100,30.15,7.0,Calm,Calm,-,N/A,,Clear,0,2013-07-07 11:50:00
8:50 AM,80.6,73.4,79,30.16,10.0,ESE,6.9,-,N/A,,Partly Cloudy,120,2013-07-07 12:50:00
9:50 AM,80.6,75.2,84,30.17,10.0,SE,6.9,-,N/A,,Mostly Cloudy,130,2013-07-07 13:50:00
10:50 AM,84.2,73.4,70,30.16,10.0,ESE,9.2,-,N/A,,Mostly Cloudy,120,2013-07-07 14:50:00
11:50 AM,84.2,73.4,70,30.17,10.0,ESE,11.5,-,N/A,,Mostly Cloudy,120,2013-07-07 15:50:00
12:50 PM,86.0,73.4,66,30.16,10.0,ESE,11.5,-,N/A,,Mostly Cloudy,110,2013-07-07 16:50:00
1:50 PM,87.8,71.6,58,30.14,10.0,East,9.2,-,N/A,,Mostly Cloudy,90,2013-07-07 17:50:00
2:50 PM,86.0,71.6,62,30.13,10.0,East,11.5,-,N/A,,Mostly Cloudy,90,2013-07-07 18:50:00
3:50 PM,86.0,73.4,66,30.12,10.0,ESE,11.5,-,N/A,,Mostly Cloudy,110,2013-07-07 19:50:00
4:50 PM,86.0,73.4,66,30.10,10.0,East,11.5,-,N/A,,Scattered Clouds,80,2013-07-07 20:50:00
5:50 PM,84.2,73.4,70,30.10,10.0,East,11.5,-,N/A,,Scattered Clouds,90,2013-07-07 21:50:00
6:50 PM,84.2,71.6,66,30.10,10.0,East,11.5,-,N/A,,Partly Cloudy,90,2013-07-07 22:50:00
7:50 PM,82.4,71.6,70,30.10,10.0,ESE,9.2,-,N/A,,Partly Cloudy,110,2013-07-07 23:50:00
8:15 PM,80.6,73.4,79,30.12,10.0,East,3.5,-,N/A,,Clear,100,2013-07-08 00:15:00
8:35 PM,80.6,71.6,74,30.13,10.0,Calm,Calm,-,N/A,,Clear,0,2013-07-08 00:35:00
8:55 PM,77.0,73.4,89,30.13,10.0,Calm,Calm,-,N/A,,Clear,0,2013-07-08 00:55:00
9:15 PM,77.0,73.4,89,30.14,9.0,Calm,Calm,-,N/A,,Clear,0,2013-07-08 01:15:00
9:35 PM,75.2,73.4,94,30.15,10.0,Calm,Calm,-,N/A,,Clear,0,2013-07-08 01:35:00
9:55 PM,73.4,73.4,100,30.15,10.0,Calm,Calm,-,N/A,,Clear,0,2013-07-08 01:55:00
10:15 PM,73.4,73.4,100,30.15,10.0,Calm,Calm,-,N/A,,Clear,0,2013-07-08 02:15:00
10:35 PM,73.4,71.6,94,30.15,10.0,Calm,Calm,-,N/A,,Clear,0,2013-07-08 02:35:00
10:55 PM,73.4,73.4,100,30.16,10.0,Calm,Calm,-,N/A,,Clear,0,2013-07-08 02:55:00
11:15 PM,71.6,71.6,100,30.16,10.0,Calm,Calm,-,N/A,,Clear,0,2013-07-08 03:15:00
11:35 PM,71.6,71.6,100,30.16,10.0,Calm,Calm,-,N/A,,Clear,0,2013-07-08 03:35:00
11:55 PM,71.6,71.6,100,30.16,9.0,Calm,Calm,-,N/A,,Clear,0,2013-07-08 03:55:00